SAS648L EDDH-EKCH

Flight info

Callsign SAS648L
Flight time 1h 0m
Altitude 28000
Route ELSOB3C ELSOB Y348 OMWEG DCT BADOS DCT ATTUS P992 BAVTA/N0371F270 N873 INTET T55 TESPI
Aircraft A20N/M-SDE2E3FGHIRWXY/LB1

Departure

Time 2026-04-21 16:48
Airport Hamburg Helmut Schmidt Airport (EDDH)

Arrival

Time 2026-04-21 17:48
Airport Copenhagen Kastrup Airport (EKCH)
Time Latitude Longitude Altitude Speed Heading
2026-04-21 16:12 53.62926 10.00289 50 ft 0 kts 121°
2026-04-21 16:31 53.62928 10.00284 50 ft 1 kts 121°
2026-04-21 16:31 53.62930 10.00279 50 ft 1 kts 121°
2026-04-21 16:32 53.62932 10.00273 50 ft 1 kts 121°
2026-04-21 16:32 53.62934 10.00267 46 ft 1 kts 121°
2026-04-21 16:32 53.62936 10.00261 45 ft 1 kts 121°
2026-04-21 16:32 53.62938 10.00255 45 ft 1 kts 121°
2026-04-21 16:33 53.62941 10.00247 47 ft 1 kts 121°
2026-04-21 16:33 53.62944 10.00239 48 ft 1 kts 121°
2026-04-21 16:33 53.62947 10.00232 49 ft 1 kts 121°
2026-04-21 16:34 53.62950 10.00224 47 ft 1 kts 121°
2026-04-21 16:34 53.62953 10.00216 46 ft 1 kts 121°
2026-04-21 16:34 53.62956 10.00208 49 ft 1 kts 121°
2026-04-21 16:34 53.62958 10.00201 47 ft 0 kts 121°
2026-04-21 16:39 53.62960 10.00197 50 ft 1 kts 121°
2026-04-21 16:39 53.62962 10.00190 50 ft 1 kts 121°
2026-04-21 16:39 53.62965 10.00183 49 ft 1 kts 121°
2026-04-21 16:39 53.62967 10.00177 48 ft 1 kts 121°
2026-04-21 16:40 53.62969 10.00170 47 ft 1 kts 121°
2026-04-21 16:40 53.62972 10.00163 47 ft 1 kts 121°
2026-04-21 16:40 53.62974 10.00156 48 ft 1 kts 121°
2026-04-21 16:40 53.62977 10.00149 49 ft 1 kts 133°
2026-04-21 16:41 53.62980 10.00143 49 ft 1 kts 147°
2026-04-21 16:41 53.62984 10.00139 46 ft 1 kts 166°
2026-04-21 16:41 53.62988 10.00137 47 ft 1 kts 186°
2026-04-21 16:41 53.62992 10.00138 48 ft 1 kts 207°
2026-04-21 16:42 53.62993 10.00138 48 ft 0 kts 213°
2026-04-21 16:42 53.62992 10.00137 48 ft 0 kts 213°
2026-04-21 16:44 53.62984 10.00128 48 ft 4 kts 213°
2026-04-21 16:44 53.62951 10.00094 50 ft 7 kts 211°
2026-04-21 16:44 53.62898 10.00045 50 ft 10 kts 198°
2026-04-21 16:45 53.62854 9.99990 49 ft 9 kts 237°
2026-04-21 16:45 53.62844 9.99958 48 ft 0 kts 242°
2026-04-21 16:46 53.62843 9.99957 48 ft 1 kts 242°
2026-04-21 16:46 53.62831 9.99919 50 ft 7 kts 242°
2026-04-21 16:47 53.62830 9.99779 46 ft 18 kts 318°
2026-04-21 16:47 53.63025 9.99609 48 ft 59 kts 333°
2026-04-21 16:47 53.63578 9.99133 50 ft 116 kts 333°
2026-04-21 16:47 53.64412 9.98405 177 ft 144 kts 338°
2026-04-21 16:48 53.65322 9.97642 664 ft 154 kts 339°
2026-04-21 16:48 53.66341 9.96789 1146 ft 169 kts 340°
2026-04-21 16:48 53.67434 9.95862 1502 ft 187 kts 339°
2026-04-21 16:48 53.68642 9.94826 1857 ft 204 kts 339°
2026-04-21 16:49 53.69943 9.93696 2306 ft 214 kts 337°
2026-04-21 16:49 53.71082 9.92001 2937 ft 228 kts 305°
2026-04-21 16:49 53.71546 9.89399 3610 ft 239 kts 270°
2026-04-21 16:49 53.71229 9.86641 4369 ft 246 kts 251°
2026-04-21 16:50 53.70604 9.83819 4906 ft 268 kts 247°
2026-04-21 16:50 53.69887 9.80803 5604 ft 283 kts 248°
2026-04-21 16:50 53.69180 9.77662 6576 ft 288 kts 249°
2026-04-21 16:50 53.68503 9.74458 7557 ft 292 kts 250°
2026-04-21 16:51 53.67843 9.71187 8510 ft 298 kts 251°
2026-04-21 16:51 53.67188 9.67859 9510 ft 301 kts 251°
2026-04-21 16:51 53.66834 9.64362 10387 ft 307 kts 273°
2026-04-21 16:51 53.67286 9.60801 10968 ft 320 kts 296°
2026-04-21 16:52 53.68546 9.57673 11289 ft 337 kts 319°
2026-04-21 16:52 53.70520 9.55499 11834 ft 340 kts 343°
2026-04-21 16:52 53.72817 9.54737 12723 ft 336 kts
2026-04-21 16:52 53.75168 9.54685 13581 ft 339 kts
2026-04-21 16:53 53.77542 9.54628 14415 ft 343 kts
2026-04-21 16:53 53.79949 9.54376 15169 ft 348 kts 359°
2026-04-21 16:53 53.82376 9.53954 15943 ft 352 kts 356°
2026-04-21 16:53 53.84822 9.53430 16698 ft 356 kts 356°
2026-04-21 16:54 53.87261 9.52864 17441 ft 360 kts 355°
2026-04-21 16:54 53.89760 9.52270 18183 ft 364 kts 355°
2026-04-21 16:54 53.92298 9.51667 18740 ft 372 kts 355°
2026-04-21 16:54 53.94865 9.51059 19433 ft 372 kts 355°
2026-04-21 16:55 53.97419 9.50412 20298 ft 370 kts 352°
2026-04-21 16:55 53.99924 9.49331 20999 ft 374 kts 345°
2026-04-21 16:55 54.02369 9.47704 21661 ft 379 kts 338°
2026-04-21 16:55 54.04711 9.45564 22287 ft 385 kts 333°
2026-04-21 16:56 54.07041 9.43254 22836 ft 390 kts 333°
2026-04-21 16:56 54.09416 9.40923 23322 ft 397 kts 333°
2026-04-21 16:56 54.11799 9.38584 23795 ft 403 kts 333°
2026-04-21 16:56 54.14248 9.36174 24224 ft 409 kts 333°
2026-04-21 16:57 54.16737 9.33716 24637 ft 415 kts 333°
2026-04-21 16:57 54.19246 9.31231 25050 ft 420 kts 333°
2026-04-21 16:57 54.21792 9.28706 25470 ft 424 kts 333°
2026-04-21 16:57 54.24358 9.26157 25890 ft 428 kts 333°
2026-04-21 16:58 54.26958 9.23571 26216 ft 435 kts 333°
2026-04-21 16:58 54.29592 9.20947 26522 ft 441 kts 333°
2026-04-21 16:58 54.32264 9.18282 26813 ft 447 kts 333°
2026-04-21 16:58 54.34972 9.15577 27062 ft 454 kts 333°
2026-04-21 16:59 54.37753 9.13110 27332 ft 456 kts 339°
2026-04-21 16:59 54.40713 9.11120 27604 ft 460 kts 342°
2026-04-21 16:59 54.43732 9.09145 27841 ft 465 kts 342°
2026-04-21 16:59 54.46778 9.07130 28064 ft 470 kts 342°
2026-04-21 17:00 54.49841 9.05097 28339 ft 473 kts 342°
2026-04-21 17:00 54.54944 9.01710 28365 ft 473 kts 342°
2026-04-21 17:01 54.62135 8.96934 28366 ft 473 kts 342°
2026-04-21 17:01 54.68272 8.92847 28370 ft 473 kts 341°
2026-04-21 17:02 54.74414 8.88743 28368 ft 472 kts 341°
2026-04-21 17:02 54.80513 8.84655 28367 ft 473 kts 341°
2026-04-21 17:03 54.86664 8.80516 28375 ft 472 kts 341°
2026-04-21 17:03 54.92794 8.76383 28372 ft 473 kts 341°
2026-04-21 17:04 54.98945 8.72233 28373 ft 473 kts 341°
2026-04-21 17:04 55.05083 8.68077 28374 ft 474 kts 341°
2026-04-21 17:05 55.11198 8.63922 28372 ft 474 kts 341°
2026-04-21 17:05 55.17356 8.59719 28374 ft 475 kts 341°
2026-04-21 17:06 55.22476 8.56215 28377 ft 475 kts 341°
2026-04-21 17:06 55.28628 8.51992 28376 ft 475 kts 341°
2026-04-21 17:07 55.34779 8.47756 28373 ft 475 kts 341°
2026-04-21 17:07 55.40934 8.43502 28373 ft 475 kts 341°
2026-04-21 17:08 55.47090 8.39232 28372 ft 475 kts 341°
2026-04-21 17:08 55.53268 8.35291 28374 ft 472 kts 350°
2026-04-21 17:08 55.56512 8.34597 28372 ft 467 kts
2026-04-21 17:09 55.62798 8.36746 28377 ft 459 kts 26°
2026-04-21 17:09 55.65573 8.39479 28374 ft 455 kts 38°
2026-04-21 17:09 55.67934 8.43121 28376 ft 448 kts 47°
2026-04-21 17:10 55.72308 8.50928 28377 ft 445 kts 47°
2026-04-21 17:10 55.76677 8.58644 28376 ft 446 kts 46°
2026-04-21 17:11 55.81073 8.66400 28381 ft 446 kts 46°
2026-04-21 17:11 55.85475 8.74191 28379 ft 445 kts 47°
2026-04-21 17:12 55.89866 8.81989 28376 ft 445 kts 47°
2026-04-21 17:12 55.94246 8.89795 28378 ft 445 kts 47°
2026-04-21 17:13 55.98582 8.97548 28381 ft 444 kts 47°
2026-04-21 17:13 56.02943 9.05372 28379 ft 432 kts 47°
2026-04-21 17:14 56.05018 9.09098 28377 ft 412 kts 47°
2026-04-21 17:14 56.07006 9.12673 28383 ft 403 kts 47°
2026-04-21 17:14 56.10973 9.19871 28378 ft 410 kts 47°
2026-04-21 17:15 56.14965 9.27132 28371 ft 409 kts 47°
2026-04-21 17:15 56.18744 9.34713 28381 ft 406 kts 59°
2026-04-21 17:16 56.19965 9.39255 28380 ft 404 kts 72°
2026-04-21 17:16 56.20574 9.44172 28379 ft 404 kts 84°
2026-04-21 17:16 56.20543 9.49224 28380 ft 417 kts 97°
2026-04-21 17:16 56.19833 9.54348 28384 ft 430 kts 109°
2026-04-21 17:17 56.17671 9.64453 28386 ft 422 kts 109°
2026-04-21 17:17 56.16629 9.69249 28374 ft 403 kts 109°
2026-04-21 17:17 56.15619 9.73907 28387 ft 403 kts 109°
2026-04-21 17:18 56.13573 9.83375 28379 ft 407 kts 109°
2026-04-21 17:18 56.11520 9.92835 28385 ft 407 kts 109°
2026-04-21 17:19 56.09109 10.02026 28383 ft 410 kts 119°
2026-04-21 17:19 56.05947 10.10487 28383 ft 411 kts 121°
2026-04-21 17:20 56.02799 10.18851 28368 ft 389 kts 121°
2026-04-21 17:20 56.01338 10.22720 28375 ft 364 kts 121°
2026-04-21 17:20 55.99963 10.26358 28372 ft 344 kts 121°
2026-04-21 17:21 55.98654 10.29825 28353 ft 329 kts 120°
2026-04-21 17:21 55.97400 10.33144 28245 ft 316 kts 120°
2026-04-21 17:21 55.96187 10.36352 27957 ft 309 kts 120°
2026-04-21 17:21 55.94987 10.39527 27504 ft 308 kts 120°
2026-04-21 17:22 55.93790 10.42690 27083 ft 306 kts 120°
2026-04-21 17:22 55.92603 10.45818 26661 ft 304 kts 120°
2026-04-21 17:22 55.91459 10.48913 26248 ft 301 kts 117°
2026-04-21 17:22 55.90477 10.52173 25843 ft 297 kts 111°
2026-04-21 17:23 55.89694 10.55553 25426 ft 294 kts 106°
2026-04-21 17:23 55.89108 10.59002 25033 ft 287 kts 101°
2026-04-21 17:23 55.88687 10.62462 24637 ft 285 kts 99°
2026-04-21 17:23 55.88280 10.65916 24239 ft 284 kts 99°
2026-04-21 17:24 55.87868 10.69349 23900 ft 281 kts 99°
2026-04-21 17:24 55.87458 10.72707 23516 ft 273 kts 99°
2026-04-21 17:24 55.87058 10.75986 23032 ft 269 kts 99°
2026-04-21 17:24 55.86663 10.79214 22657 ft 270 kts 99°
2026-04-21 17:25 55.86264 10.82473 22281 ft 269 kts 99°
2026-04-21 17:25 55.85866 10.85712 21896 ft 267 kts 99°
2026-04-21 17:25 55.85474 10.88897 21535 ft 264 kts 99°
2026-04-21 17:25 55.85080 10.92084 21164 ft 262 kts 99°
2026-04-21 17:26 55.84680 10.95235 20790 ft 261 kts 101°
2026-04-21 17:26 55.84228 10.98356 20416 ft 259 kts 102°
2026-04-21 17:26 55.83760 11.01449 20064 ft 258 kts 102°
2026-04-21 17:26 55.83294 11.04521 19701 ft 256 kts 102°
2026-04-21 17:27 55.82836 11.07577 19342 ft 255 kts 102°
2026-04-21 17:27 55.82384 11.10617 18985 ft 254 kts 102°
2026-04-21 17:27 55.81940 11.13610 18626 ft 253 kts 102°
2026-04-21 17:27 55.81492 11.16631 18247 ft 251 kts 102°
2026-04-21 17:28 55.81048 11.19620 17887 ft 248 kts 102°
2026-04-21 17:28 55.80608 11.22573 17532 ft 246 kts 102°
2026-04-21 17:28 55.80168 11.25531 17175 ft 256 kts 102°
2026-04-21 17:28 55.79686 11.28803 16794 ft 284 kts 102°
2026-04-21 17:29 55.79180 11.32188 16531 ft 281 kts 102°
2026-04-21 17:29 55.78677 11.35521 16271 ft 277 kts 102°
2026-04-21 17:29 55.78177 11.38834 16015 ft 279 kts 102°
2026-04-21 17:29 55.77679 11.42131 15874 ft 270 kts 102°
2026-04-21 17:30 55.77295 11.45158 15738 ft 253 kts 95°
2026-04-21 17:30 55.77061 11.48258 15601 ft 240 kts 95°
2026-04-21 17:30 55.76837 11.51171 15328 ft 235 kts 95°
2026-04-21 17:30 55.76615 11.54026 15059 ft 238 kts 95°
2026-04-21 17:31 55.76387 11.56942 14814 ft 238 kts 95°
2026-04-21 17:31 55.76156 11.59855 14569 ft 237 kts 95°
2026-04-21 17:31 55.75925 11.62760 14353 ft 238 kts 95°
2026-04-21 17:31 55.75694 11.65658 14056 ft 236 kts 95°
2026-04-21 17:32 55.75542 11.67561 13850 ft 234 kts 95°
2026-04-21 17:32 55.75235 11.71376 13465 ft 234 kts 95°
2026-04-21 17:32 55.75009 11.74186 13173 ft 232 kts 95°
2026-04-21 17:32 55.74781 11.77010 12880 ft 230 kts 95°
2026-04-21 17:33 55.74554 11.79825 12591 ft 230 kts 95°
2026-04-21 17:33 55.74328 11.82605 12296 ft 229 kts 95°
2026-04-21 17:33 55.74101 11.85392 12010 ft 228 kts 95°
2026-04-21 17:33 55.73874 11.88173 11722 ft 227 kts 96°
2026-04-21 17:34 55.73648 11.90940 11428 ft 226 kts 96°
2026-04-21 17:34 55.73421 11.93694 11141 ft 225 kts 96°
2026-04-21 17:34 55.73198 11.96406 10860 ft 224 kts 96°
2026-04-21 17:34 55.72971 11.99148 10567 ft 223 kts 96°
2026-04-21 17:35 55.72746 12.01858 10278 ft 222 kts 96°
2026-04-21 17:35 55.72521 12.04569 9972 ft 223 kts 96°
2026-04-21 17:35 55.72295 12.07281 9693 ft 221 kts 96°
2026-04-21 17:35 55.72069 12.09981 9406 ft 221 kts 96°
2026-04-21 17:36 55.71844 12.12671 9117 ft 220 kts 96°
2026-04-21 17:36 55.71619 12.15352 8830 ft 219 kts 96°
2026-04-21 17:36 55.71397 12.17979 8614 ft 215 kts 96°
2026-04-21 17:36 55.71172 12.20650 8371 ft 220 kts 96°
2026-04-21 17:37 55.70739 12.23257 8066 ft 223 kts 113°
2026-04-21 17:37 55.69825 12.25485 7772 ft 226 kts 131°
2026-04-21 17:37 55.69027 12.26695 7582 ft 228 kts 136°
2026-04-21 17:37 55.67398 12.29088 7164 ft 226 kts 135°
2026-04-21 17:38 55.66219 12.30855 6782 ft 225 kts 135°
2026-04-21 17:38 55.65047 12.32628 6334 ft 225 kts 135°
2026-04-21 17:38 55.63838 12.34463 5917 ft 227 kts 135°
2026-04-21 17:38 55.62646 12.36270 5616 ft 225 kts 135°
2026-04-21 17:39 55.61436 12.37989 5324 ft 230 kts 147°
2026-04-21 17:39 55.59884 12.38711 5012 ft 236 kts 180°
2026-04-21 17:39 55.58334 12.37866 4799 ft 234 kts 214°
2026-04-21 17:39 55.57048 12.36002 4608 ft 240 kts 223°
2026-04-21 17:40 55.55842 12.34011 4414 ft 235 kts 224°
2026-04-21 17:40 55.54652 12.32042 4219 ft 235 kts 223°
2026-04-21 17:40 55.53447 12.30106 4029 ft 234 kts 222°
2026-04-21 17:40 55.52246 12.28228 3838 ft 232 kts 221°
2026-04-21 17:41 55.50955 12.26565 3661 ft 230 kts 201°
2026-04-21 17:41 55.49400 12.26177 3461 ft 225 kts 168°
2026-04-21 17:41 55.47998 12.27249 3276 ft 219 kts 136°
2026-04-21 17:41 55.46982 12.29210 3093 ft 216 kts 127°
2026-04-21 17:42 55.46011 12.31220 2978 ft 215 kts 128°
2026-04-21 17:42 55.45067 12.33264 2970 ft 214 kts 117°
2026-04-21 17:42 55.44726 12.35729 2986 ft 207 kts 82°
2026-04-21 17:42 55.45167 12.38025 2899 ft 192 kts 57°
2026-04-21 17:43 55.45966 12.39807 2740 ft 180 kts 45°
2026-04-21 17:43 55.46888 12.41347 2668 ft 185 kts 41°
2026-04-21 17:43 55.47853 12.42832 2580 ft 184 kts 40°
2026-04-21 17:43 55.48790 12.44275 2530 ft 168 kts 40°
2026-04-21 17:44 55.49605 12.45530 2437 ft 144 kts 40°
2026-04-21 17:44 55.50344 12.46666 2351 ft 143 kts 40°
2026-04-21 17:44 55.51086 12.47808 2185 ft 140 kts 40°
2026-04-21 17:44 55.51819 12.48936 2009 ft 140 kts 41°
2026-04-21 17:45 55.52543 12.50051 1831 ft 139 kts 40°
2026-04-21 17:45 55.53269 12.51171 1639 ft 139 kts 40°
2026-04-21 17:45 55.53998 12.52293 1445 ft 139 kts 40°
2026-04-21 17:45 55.54725 12.53415 1254 ft 139 kts 41°
2026-04-21 17:46 55.55454 12.54539 1064 ft 138 kts 40°
2026-04-21 17:46 55.56184 12.55665 857 ft 141 kts 40°
2026-04-21 17:46 55.56934 12.56823 657 ft 144 kts 41°
2026-04-21 17:46 55.57696 12.57999 455 ft 147 kts 41°
2026-04-21 17:47 55.58463 12.59184 251 ft 147 kts 41°
2026-04-21 17:47 55.59226 12.60362 59 ft 147 kts 41°
2026-04-21 17:47 55.59924 12.61441 23 ft 107 kts 41°
2026-04-21 17:47 55.60342 12.62088 23 ft 62 kts 41°
2026-04-21 17:48 55.60524 12.62369 25 ft 29 kts 41°
2026-04-21 17:48 55.60727 12.62679 28 ft 30 kts 42°
2026-04-21 17:48 55.60916 12.62845 29 ft 29 kts 14°
2026-04-21 17:48 55.61016 12.62884 24 ft 13 kts 12°
2026-04-21 17:49 55.61115 12.62923 25 ft 16 kts 18°
2026-04-21 17:49 55.61211 12.63046 25 ft 19 kts 41°
2026-04-21 17:49 55.61315 12.63206 24 ft 21 kts 40°
2026-04-21 17:49 55.61431 12.63387 26 ft 24 kts 42°
2026-04-21 17:50 55.61561 12.63589 23 ft 26 kts 40°
2026-04-21 17:50 55.61703 12.63809 26 ft 27 kts 41°
2026-04-21 17:50 55.61818 12.63986 25 ft 22 kts 41°
2026-04-21 17:50 55.61941 12.64127 23 ft 22 kts 25°
2026-04-21 17:51 55.62065 12.64230 23 ft 19 kts 25°
2026-04-21 17:51 55.62189 12.64334 24 ft 17 kts 25°
2026-04-21 17:51 55.62307 12.64409 24 ft 17 kts 15°
2026-04-21 17:51 55.62424 12.64466 23 ft 17 kts 15°
2026-04-21 17:52 55.62519 12.64421 25 ft 15 kts 304°
2026-04-21 17:52 55.62583 12.64269 25 ft 16 kts 329°
2026-04-21 17:52 55.62687 12.64326 23 ft 17 kts 24°
2026-04-21 17:52 55.62760 12.64410 25 ft 10 kts 79°
2026-04-21 17:53 55.62755 12.64467 25 ft 0 kts 102°